| time (UTC) | temp C | wind direction | speed KPH | gust KPH | rain 1hr cm | rain 24hr cm | rain mn cm | humidity % | barometer mb |
| 20260502151517 | 5 | 359 | 8.0 | 0.0 | 0.00 | 0.00 | 0.00 | 47 | 1013.1 |
| 20260502123004 | 2 | 0 | 4.8 | 0.0 | 0.00 | 0.00 | 0.00 | 73 | 1013.1 |
| 20260502121503 | 2 | 3 | 1.6 | 0.0 | 0.00 | 0.00 | 0.00 | 77 | 1013.2 |
| 20260502114505 | 1 | 349 | 0.0 | 0.0 | 0.00 | 0.00 | 0.00 | 83 | 1013.1 |
| 20260502113004 | 1 | 0 | 0.0 | 0.0 | 0.00 | 0.00 | 0.00 | 86 | 1013.0 |
| 20260502111601 | 1 | 86 | 0.0 | 0.0 | 0.00 | 0.00 | 0.00 | 88 | 1012.9 |
| 20260502110103 | 1 | 86 | 0.0 | 0.0 | 0.00 | 0.00 | 0.00 | 88 | 1012.8 |
| 20260502104559 | 0 | 86 | 0.0 | 0.0 | 0.00 | 0.00 | 0.00 | 87 | 1012.7 |
| 20260502103103 | 0 | 86 | 0.0 | 0.0 | 0.00 | 0.00 | 0.00 | 86 | 1012.7 |
| 20260502101631 | 1 | 87 | 0.0 | 0.0 | 0.00 | 0.00 | 0.00 | 85 | 1012.6 |
| 20260502100117 | 1 | 87 | 0.0 | 0.0 | 0.00 | 0.00 | 0.00 | 84 | 1012.5 |
| 20260502070049 | 3 | 68 | 0.0 | 0.0 | 0.00 | 0.00 | 0.00 | 75 | 1011.8 |
| 20260502064542 | 3 | 68 | 0.0 | 0.0 | 0.00 | 0.00 | 0.00 | 73 | 1011.9 |
| 20260502063038 | 3 | 67 | 0.0 | 0.0 | 0.00 | 0.00 | 0.00 | 71 | 1011.9 |
| 20260502061536 | 3 | 65 | 0.0 | 0.0 | 0.00 | 0.00 | 0.00 | 64 | 1012.0 |
| 20260502060034 | 3 | 67 | 0.0 | 0.0 | 0.00 | 0.00 | 0.00 | 64 | 1012.0 |
| 20260502054536 | 3 | 76 | 0.0 | 0.0 | 0.00 | 0.00 | 0.00 | 69 | 1012.1 |
| 20260502053033 | 3 | 76 | 0.0 | 0.0 | 0.00 | 0.00 | 0.00 | 71 | 1012.1 |
| 20260502051534 | 3 | 76 | 0.0 | 0.0 | 0.00 | 0.00 | 0.00 | 70 | 1012.2 |
| 20260502050030 | 3 | 76 | 0.0 | 0.0 | 0.00 | 0.00 | 0.00 | 71 | 1012.1 |
| 20260502044529 | 3 | 76 | 0.0 | 0.0 | 0.00 | 0.00 | 0.00 | 71 | 1011.8 |
| 20260502043028 | 3 | 75 | 0.0 | 0.0 | 0.00 | 0.00 | 0.00 | 71 | 1011.7 |
| 20260502041531 | 3 | 75 | 0.0 | 0.0 | 0.00 | 0.00 | 0.00 | 71 | 1011.4 |
| 20260502040034 | 4 | 75 | 0.0 | 0.0 | 0.00 | 0.00 | 0.03 | 70 | 1011.5 |
| 20260502034523 | 4 | 75 | 0.0 | 0.0 | 0.00 | 0.00 | 0.03 | 68 | 1011.4 |
| 20260502033022 | 4 | 14 | 0.0 | 0.0 | 0.00 | 0.00 | 0.03 | 64 | 1011.4 |
| 20260502031523 | 4 | 16 | 4.8 | 0.0 | 0.00 | 0.00 | 0.03 | 62 | 1011.3 |
| 20260502030021 | 5 | 4 | 8.0 | 0.0 | 0.00 | 0.00 | 0.03 | 61 | 1011.3 |
| 20260502024535 | 5 | 9 | 8.0 | 0.0 | 0.00 | 0.00 | 0.03 | 61 | 1011.3 |
| 20260502023019 | 5 | 359 | 6.4 | 0.0 | 0.00 | 0.00 | 0.03 | 60 | 1011.2 |
| 20260502021516 | 5 | 310 | 0.0 | 0.0 | 0.00 | 0.00 | 0.03 | 58 | 1011.0 |
| 20260502020016 | 5 | 310 | 0.0 | 0.0 | 0.00 | 0.00 | 0.03 | 57 | 1010.9 |
| 20260502014525 | 5 | 310 | 0.0 | 0.0 | 0.00 | 0.00 | 0.03 | 57 | 1010.9 |
| 20260502013016 | 5 | 310 | 1.6 | 0.0 | 0.00 | 0.00 | 0.03 | 57 | 1010.7 |
| 20260502011513 | 5 | 308 | 6.4 | 0.0 | 0.00 | 0.00 | 0.03 | 56 | 1010.7 |
| 20260502010010 | 5 | 313 | 1.6 | 0.0 | 0.00 | 0.00 | 0.03 | 56 | 1010.6 |
| 20260502004510 | 5 | 323 | 0.0 | 0.0 | 0.00 | 0.00 | 0.03 | 57 | 1010.5 |
| 20260502003009 | 5 | 323 | 0.0 | 0.0 | 0.00 | 0.00 | 0.03 | 56 | 1010.4 |
| 20260502001509 | 6 | 303 | 0.0 | 0.0 | 0.00 | 0.00 | 0.03 | 56 | 1010.3 |
| 20260502000007 | 6 | 303 | 1.6 | 0.0 | 0.00 | 0.00 | 0.03 | 56 | 1010.2 |
| 20260501234511 | 6 | 325 | 3.2 | 0.0 | 0.00 | 0.00 | 0.03 | 57 | 1010.1 |
| 20260501233007 | 6 | 345 | 0.0 | 0.0 | 0.00 | 0.00 | 0.03 | 58 | 1010.1 |
| 20260501231505 | 6 | 11 | 0.0 | 0.0 | 0.00 | 0.00 | 0.03 | 58 | 1010.1 |
| 20260501230005 | 6 | 359 | 3.2 | 0.0 | 0.00 | 0.00 | 0.03 | 57 | 1010.2 |
| 20260501224511 | 6 | 314 | 4.8 | 0.0 | 0.00 | 0.00 | 0.03 | 57 | 1010.1 |
| 20260501223005 | 6 | 311 | 6.4 | 0.0 | 0.00 | 0.00 | 0.03 | 56 | 1010.2 |
| 20260501221506 | 6 | 1 | 3.2 | 0.0 | 0.00 | 0.00 | 0.03 | 56 | 1009.9 |
| 20260501220003 | 6 | 338 | 3.2 | 0.0 | 0.00 | 0.00 | 0.03 | 57 | 1009.8 |
| 20260501214501 | 6 | 333 | 3.2 | 0.0 | 0.00 | 0.00 | 0.03 | 58 | 1009.7 |
| 20260501213001 | 7 | 338 | 0.0 | 0.0 | 0.00 | 0.00 | 0.03 | 53 | 1009.6 |
| 20260501211604 | 7 | 0 | 3.2 | 0.0 | 0.00 | 0.00 | 0.03 | 52 | 1009.2 |
| 20260501210100 | 7 | 326 | 3.2 | 0.0 | 0.00 | 0.00 | 0.03 | 52 | 1009.0 |
| 20260501204600 | 7 | 328 | 6.4 | 0.0 | 0.00 | 0.00 | 0.03 | 52 | 1009.1 |
| 20260501203107 | 7 | 328 | 1.6 | 0.0 | 0.00 | 0.00 | 0.03 | 54 | 1009.1 |
| 20260501201606 | 7 | 327 | 0.0 | 0.0 | 0.00 | 0.00 | 0.03 | 54 | 1009.0 |
| 20260501200057 | 8 | 304 | 4.8 | 0.0 | 0.00 | 0.00 | 0.03 | 50 | 1009.0 |
| 20260501194557 | 7 | 359 | 8.0 | 0.0 | 0.00 | 0.00 | 0.03 | 52 | 1009.0 |
| 20260501193056 | 7 | 338 | 4.8 | 0.0 | 0.00 | 0.00 | 0.03 | 52 | 1009.0 |
| 20260501191556 | 8 | 9 | 4.8 | 0.0 | 0.00 | 0.00 | 0.03 | 53 | 1008.9 |
| 20260501190054 | 7 | 27 | 6.4 | 0.0 | 0.00 | 0.00 | 0.03 | 54 | 1008.8 |
| 20260501184608 | 7 | 2 | 6.4 | 0.0 | 0.00 | 0.00 | 0.03 | 55 | 1008.9 |
| 20260501183057 | 7 | 32 | 8.0 | 0.0 | 0.00 | 0.00 | 0.03 | 54 | 1008.7 |
| 20260501181553 | 7 | 357 | 6.4 | 0.0 | 0.00 | 0.00 | 0.03 | 56 | 1008.7 |
| 20260501180052 | 7 | 36 | 8.0 | 0.0 | 0.00 | 0.00 | 0.03 | 54 | 1008.4 |
| 20260501174555 | 8 | 24 | 9.7 | 0.0 | 0.00 | 0.00 | 0.03 | 56 | 1008.4 |
| 20260501173111 | 8 | 340 | 6.4 | 0.0 | 0.00 | 0.00 | 0.03 | 53 | 1008.4 |
| 20260501171551 | 8 | 22 | 4.8 | 0.0 | 0.00 | 0.00 | 0.03 | 52 | 1008.4 |
| 20260501170050 | 8 | 347 | 4.8 | 0.0 | 0.00 | 0.00 | 0.03 | 51 | 1008.4 |
| 20260501164600 | 7 | 42 | 4.8 | 0.0 | 0.00 | 0.00 | 0.03 | 50 | 1008.4 |
| 20260501163048 | 7 | 22 | 6.4 | 0.0 | 0.00 | 0.00 | 0.03 | 52 | 1008.4 |
| 20260501161549 | 7 | 359 | 6.4 | 0.0 | 0.00 | 0.00 | 0.03 | 51 | 1008.4 |